Location: Barcelona
(41.3829°N, 2.1774°E)
Time: 12:18:22
(UTC+00:00)

ISS - Pass Details

Date: 06 May 2025
Orbit: 416 x 419 km, 51.6° (Epoch: 14 May)

Event Time Altitude Azimuth Distance (km) Brightness Sun altitude
Rises 04:11:25 0° 305° (NW) 2,361 -0.2 -6.0°
Reaches altitude 10° 04:13:31 10° 306° (NW) 1,495 -1.2 -5.7°
Maximum altitude 04:16:52 86° 36° (NE) 422 -3.7 -5.1°
Drops below altitude 10° 04:20:13 10° 125° (SE) 1,488 -0.6 -4.6°
Sets 04:22:18 0° 126° (SE) 2,349 0.5 -4.2°
